Weather History for KARB - February, 2013

Change the Weather History Date:

Tuesday, February 26, 2013

  Actual Average Record
Temperature  
Mean Temperature 30 °F -  
Max Temperature 34 °F 33 °F 52 °F (2009)
Min Temperature 27 °F 18 °F -6 °F (2015)
Degree Days  
Heating Degree Days 34    
Moisture  
Dew Point 29 °F    
Average Humidity 85    
Maximum Humidity 96    
Minimum Humidity 64    
Precipitation  
Precipitation 0.82 in - - ()
Sea Level Pressure  
Sea Level Pressure 29.69 in    
Wind  
Wind Speed 12 mph (ENE)    
Max Wind Speed 20 mph    
Max Gust Speed 31 mph    
Visibility 4 miles    
Events Fog , Rain , Snow    
Averages and records for this station are not official NWS values.
T = Trace of Precipitation, MM = Missing Value Source: NWS Daily Summary

Daily Weather History Graph

Daily Weather History Graph

Search for Another Location

Airport or City:

Trip Planner

Search our weather history database for the weather conditions in past years. The results will help you decide how hot, cold, wet, or windy it might be!

Date:

Astronomy

Feb. 26, 2013 Rise Set
Actual Time 7:14 AM EST 6:21 PM EST
Civil Twilight 6:46 AM EST 6:49 PM EST
Nautical Twilight 6:13 AM EST 7:22 PM EST
Astronomical Twilight 5:41 AM EST 7:54 PM EST
Moon 7:39 PM EST (2/26) 7:14 AM EST (2/26)
Length of Visible Light 12h 03m
Length of Day
11h 07m
Full, 99% of the Moon is Illuminated
Feb 26
Full
Mar 4
Last Quarter
Mar 11
New
Mar 19
First Quarter
Mar 27
Full

Hourly Weather History & Observations

Time (EST) Temp. Windchill Dew Point Humidity Pressure Visibility Wind Dir Wind Speed Gust Speed Precip Events Conditions
12:53 AM 27.0 °F 20.5 °F 19.9 °F 75% 30.11 in 10.0 mi ENE 5.8 mph - N/A   Clear
1:53 AM 27.0 °F 20.5 °F 19.0 °F 72% 30.10 in 10.0 mi ENE 5.8 mph - N/A   Clear
2:53 AM 27.0 °F 19.5 °F 19.9 °F 75% 30.08 in 10.0 mi NE 6.9 mph - N/A   Clear
3:53 AM 28.0 °F 19.3 °F 21.0 °F 75% 30.04 in 10.0 mi ENE 9.2 mph - N/A   Clear
4:53 AM 28.0 °F 17.5 °F 21.0 °F 75% 30.00 in 10.0 mi ENE 12.7 mph 18.4 mph N/A   Clear
5:53 AM 28.9 °F 21.1 °F 21.0 °F 72% 29.98 in 10.0 mi ENE 8.1 mph - N/A   Clear
6:53 AM 28.9 °F 19.8 °F 21.9 °F 75% 29.98 in 10.0 mi ENE 10.4 mph - N/A   Clear
7:53 AM 30.0 °F 20.0 °F 21.9 °F 72% 29.97 in 10.0 mi ENE 12.7 mph 20.7 mph N/A   Clear
8:53 AM 30.9 °F 22.2 °F 21.9 °F 69% 29.96 in 10.0 mi East 10.4 mph 18.4 mph N/A   Clear
9:53 AM 33.1 °F 24.9 °F 23.0 °F 66% 29.89 in 10.0 mi East 10.4 mph 23.0 mph N/A   Clear
10:53 AM 34.0 °F 25.5 °F 23.0 °F 64% 29.85 in 10.0 mi ENE 11.5 mph 24.2 mph N/A   Clear
11:53 AM 34.0 °F 23.0 °F 25.0 °F 70% 29.83 in 8.0 mi East 18.4 mph 25.3 mph 0.00 in   Overcast
12:17 PM 33.8 °F 22.8 °F 28.4 °F 81% 29.78 in 4.0 mi East 18.4 mph 27.6 mph 0.02 in Rain Light Freezing Rain
12:53 PM 33.1 °F 21.9 °F 28.0 °F 82% 29.77 in 5.0 mi ENE 18.4 mph 28.8 mph 0.03 in Rain Light Freezing Rain
1:31 PM 33.8 °F 23.9 °F 28.4 °F 81% 29.70 in 3.0 mi ENE 15.0 mph 27.6 mph 0.04 in Rain Light Freezing Rain
1:39 PM 33.8 °F 24.3 °F 28.4 °F 81% 29.69 in 3.0 mi ENE 13.8 mph 27.6 mph 0.05 in Rain Light Freezing Rain
1:43 PM 33.8 °F 22.5 °F 28.4 °F 81% 29.69 in 3.0 mi ENE 19.6 mph 31.1 mph 0.05 in Rain Light Freezing Rain
1:50 PM 33.8 °F 23.9 °F 28.4 °F 81% 29.68 in 4.0 mi ENE 15.0 mph 31.1 mph 0.06 in Rain Light Freezing Rain
1:53 PM 33.1 °F 22.6 °F 28.9 °F 85% 29.70 in 4.0 mi ENE 16.1 mph 28.8 mph 0.06 in Rain Light Freezing Rain
2:14 PM 33.8 °F 22.8 °F 28.4 °F 81% 29.66 in 6.0 mi ENE 18.4 mph 31.1 mph 0.00 in   Overcast
2:53 PM 33.1 °F 22.2 °F 30.0 °F 89% 29.67 in 3.0 mi ENE 17.3 mph 27.6 mph 0.04 in Rain Light Freezing Rain
3:01 PM 33.8 °F 25.3 °F 30.2 °F 87% 29.66 in 2.5 mi East 11.5 mph 27.6 mph 0.02 in Rain Light Freezing Rain
3:13 PM 33.8 °F 23.9 °F 30.2 °F 87% 29.64 in 1.8 mi East 15.0 mph 24.2 mph 0.07 in Rain Light Freezing Rain
3:26 PM 33.8 °F 22.8 °F 30.2 °F 87% 29.64 in 2.0 mi East 18.4 mph 25.3 mph 0.11 in Rain Light Freezing Rain
3:46 PM 33.8 °F 23.9 °F 30.2 °F 87% 29.65 in 1.8 mi East 15.0 mph 29.9 mph 0.18 in Rain Light Freezing Rain
3:53 PM 33.1 °F 21.9 °F 30.9 °F 92% 29.68 in 1.8 mi East 18.4 mph 28.8 mph 0.21 in Rain Light Freezing Rain
4:08 PM 33.8 °F 23.2 °F 30.2 °F 87% 29.64 in 2.0 mi East 17.3 mph 26.5 mph 0.05 in Rain Light Freezing Rain
4:40 PM 33.8 °F 23.9 °F 30.2 °F 87% 29.63 in 1.8 mi East 15.0 mph 27.6 mph 0.13 in Snow Light Snow
4:53 PM 33.1 °F 22.6 °F 30.9 °F 92% 29.64 in 1.5 mi East 16.1 mph 26.5 mph 0.15 in Snow Light Snow
5:02 PM 33.8 °F 24.8 °F 30.2 °F 87% 29.61 in 1.0 mi East 12.7 mph 24.2 mph 0.00 in Snow Light Snow
5:08 PM 33.8 °F 24.3 °F 30.2 °F 87% 29.61 in 0.5 mi East 13.8 mph 24.2 mph 0.01 in Fog , Snow Snow
5:53 PM 33.1 °F 23.4 °F 32.0 °F 96% 29.61 in 0.2 mi East 13.8 mph 25.3 mph 0.05 in Fog , Snow Heavy Snow
6:24 PM 33.8 °F 23.5 °F 32.0 °F 93% 29.58 in 1.5 mi East 16.1 mph 24.2 mph 0.02 in Snow Light Snow
6:42 PM 33.8 °F 24.3 °F 32.0 °F 93% 29.58 in 3.0 mi East 13.8 mph 20.7 mph 0.03 in Snow Light Snow
6:53 PM 34.0 °F 24.6 °F 32.0 °F 92% 29.60 in 3.0 mi ENE 13.8 mph 21.9 mph 0.03 in Snow Light Snow
7:05 PM 33.8 °F 24.3 °F 32.0 °F 93% 29.57 in 2.0 mi East 13.8 mph 21.9 mph 0.01 in Snow Light Snow
7:12 PM 33.8 °F 24.3 °F 32.0 °F 93% 29.57 in 1.5 mi East 13.8 mph 21.9 mph 0.02 in Snow Light Snow
7:19 PM 33.8 °F 24.8 °F 32.0 °F 93% 29.57 in 1.2 mi East 12.7 mph 20.7 mph 0.02 in Snow Light Snow
7:53 PM 33.1 °F 23.4 °F 32.0 °F 96% 29.59 in 1.0 mi East 13.8 mph - 0.05 in Snow Light Snow
8:22 PM 33.8 °F 24.8 °F 32.0 °F 93% 29.56 in 0.8 mi East 12.7 mph 23.0 mph 0.03 in Snow Light Snow
8:53 PM 33.1 °F 23.9 °F 32.0 °F 96% 29.57 in 0.8 mi ENE 12.7 mph 21.9 mph 0.07 in Snow Light Snow
9:19 PM 33.8 °F 24.8 °F 32.0 °F 93% 29.54 in 1.0 mi East 12.7 mph 20.7 mph 0.03 in Snow Light Snow
9:53 PM 33.1 °F 23.0 °F 32.0 °F 96% 29.55 in 1.2 mi East 15.0 mph 23.0 mph 0.07 in Snow Light Snow
10:06 PM 33.8 °F 24.8 °F 32.0 °F 93% 29.51 in 1.5 mi East 12.7 mph 20.7 mph 0.01 in Snow Light Snow
10:14 PM 33.8 °F 24.8 °F 32.0 °F 93% 29.51 in 2.0 mi East 12.7 mph 19.6 mph 0.02 in Snow Light Snow
10:30 PM 33.8 °F 25.3 °F 32.0 °F 93% 29.50 in 3.0 mi East 11.5 mph 20.7 mph 0.02 in Snow Light Snow
10:37 PM 33.8 °F 25.8 °F 32.0 °F 93% 29.50 in 2.5 mi East 10.4 mph 20.7 mph 0.02 in Snow Light Snow
10:53 PM 33.1 °F 24.9 °F 32.0 °F 96% 29.52 in 1.8 mi East 10.4 mph 20.7 mph 0.03 in Snow Light Snow
11:20 PM 33.8 °F 23.9 °F 32.0 °F 93% 29.49 in 2.0 mi East 15.0 mph - 0.02 in Snow Light Snow
11:34 PM 33.8 °F 25.3 °F 32.0 °F 93% 29.49 in 3.0 mi East 11.5 mph 18.4 mph 0.02 in Snow Light Snow
11:53 PM 33.1 °F 23.4 °F 32.0 °F 96% 29.50 in 3.0 mi East 13.8 mph 20.7 mph 0.03 in Snow Light Snow